W4CAT-13 Weather Reports


time (UTC)temp
F
wind
direction
speed
knots
gust
knots
rain 1hr
in
rain 24hr
in
rain mn
in
humidity
%
barometer
mb
20260510060602 63 219 0.9 1.7 0.00 0.00 0.00 67 976.3
20260510055102 63 181 0.9 0.9 0.00 0.00 0.00 67 976.3
20260510053602 66 194 1.7 4.3 0.00 0.00 0.00 59 976.3
20260510052032 65 221 0.9 0.9 0.00 0.00 0.00 59 976.0
20260510050502 65 190 0.9 1.7 0.00 0.00 0.00 58 976.3
20260510045001 66 221 2.6 2.6 0.00 0.00 0.00 56 976.3
20260510043501 66 207 1.7 1.7 0.00 0.00 0.00 57 976.0
20260510042001 66 202 0.0 0.9 0.00 0.00 0.00 55 976.0
20260510040431 67 95 1.7 1.7 0.00 0.00 0.00 53 976.3
20260510034931 69 118 0.0 0.9 0.00 0.00 0.00 52 976.0
20260510033431 69 256 0.9 1.7 0.00 0.00 0.00 50 976.0
20260510031931 69 310 0.0 0.0 0.00 0.00 0.00 51 976.0
20260510030431 68 34 0.9 1.7 0.00 0.00 0.00 53 976.0
20260510024901 67 252 0.0 0.9 0.00 0.00 0.00 52 975.6
20260510023401 66 73 0.0 1.7 0.00 0.00 0.00 55 975.6
20260510021901 66 93 0.9 1.7 0.00 0.00 0.00 55 975.6
20260510020401 66 100 0.9 0.9 0.00 0.00 0.00 55 975.3
20260510014901 66 85 0.9 1.7 0.00 0.00 0.00 55 975.3
20260510013401 67 100 0.9 1.7 0.00 0.00 0.00 54 974.9
20260510011833 67 97 1.7 1.7 0.00 0.00 0.00 53 974.9
20260510010317 68 115 0.9 1.7 0.00 0.00 0.00 52 974.6
20260509195242 76 155 1.7 2.6 0.00 0.00 0.00 48 974.3
20260509172810 72 109 0.0 1.7 0.00 0.00 0.00 54 974.3
20260509171240 71 162 0.9 2.6 0.00 0.00 0.00 62 974.3
20260509165711 68 355 2.6 2.6 0.00 0.00 0.00 65 974.6
20260509164140 68 114 0.9 1.7 0.00 0.00 0.00 65 974.3
20260509162611 68 220 1.7 2.6 0.00 0.00 0.00 67 974.3
20260509161041 69 213 0.9 1.7 0.00 0.00 0.00 65 974.3
20260509155510 68 246 0.9 4.3 0.00 0.00 0.00 66 974.3
20260509153940 67 216 1.7 1.7 0.00 0.00 0.00 70 974.3
20260509152410 65 30 1.7 2.6 0.00 0.00 0.00 74 974.3
20260509150840 65 240 2.6 2.6 0.00 0.00 0.00 75 973.9
20260509145310 64 280 1.7 2.6 0.00 0.00 0.00 78 973.9
20260509143740 62 259 0.9 2.6 0.00 0.00 0.00 80 973.9
20260509142210 61 246 0.0 4.3 0.00 0.00 0.00 83 973.9
20260509140640 60 251 1.7 2.6 0.00 0.00 0.00 84 973.9
20260509135110 59 255 1.7 4.3 0.00 0.00 0.00 86 973.9
20260509133540 57 253 1.7 4.3 0.00 0.00 0.00 88 973.6
20260509132010 56 208 2.6 4.3 0.00 0.00 0.00 89 973.6
20260509130440 55 200 1.7 2.6 0.00 0.00 0.00 90 973.6
20260509124910 55 210 2.6 4.3 0.00 0.00 0.00 90 973.6
20260509123340 55 227 2.6 4.3 0.00 0.00 0.00 90 973.6
20260509121810 54 226 1.7 4.3 0.00 0.00 0.00 91 973.2
20260509120240 53 223 1.7 2.6 0.00 0.00 0.00 91 972.9
20260509114710 53 233 2.6 2.6 0.00 0.00 0.00 91 972.6
20260509113140 53 198 1.7 2.6 0.00 0.00 0.00 91 972.6
20260509111610 53 203 1.7 2.6 0.00 0.00 0.00 92 972.6
20260509110040 52 256 1.7 4.3 0.00 0.00 0.00 92 972.6
20260509104510 52 212 2.6 2.6 0.00 0.00 0.00 92 972.6
20260509102940 53 201 2.6 4.3 0.00 0.00 0.00 90 972.6
20260509101410 53 206 2.6 2.6 0.00 0.00 0.00 89 972.6
20260509095840 54 202 2.6 2.6 0.00 0.00 0.00 87 972.9
20260509094310 54 191 2.6 2.6 0.00 0.00 0.00 86 972.9
20260509092740 55 221 1.7 2.6 0.00 0.00 0.00 84 973.2
20260509091210 55 183 0.9 1.7 0.00 0.00 0.00 82 973.2
20260509085640 56 202 1.7 2.6 0.00 0.00 0.00 79 972.6
20260509084110 56 214 1.7 2.6 0.00 0.00 0.00 79 973.4
20260509082540 56 201 0.9 1.7 0.00 0.00 0.00 78 973.2
20260509081010 57 238 1.7 2.6 0.00 0.00 0.00 78 973.3
20260509075440 57 207 1.7 2.6 0.00 0.00 0.00 76 972.9
20260509073910 57 240 2.6 4.3 0.00 0.00 0.00 76 973.2
20260509072340 57 230 1.7 2.6 0.00 0.00 0.00 76 972.6
20260509070810 57 217 2.6 2.6 0.00 0.00 0.00 74 973.2
20260509065240 58 234 5.2 5.2 0.00 0.00 0.00 73 972.9
20260509063710 58 239 5.2 5.2 0.00 0.00 0.00 73 973.6
20260509062140 58 228 5.2 5.2 0.00 0.00 0.00 71 973.6